NOAA 16 DEB, 41157

Orbit data source: Space-Track

NOAA 16 DEB, 41157 is space debris in SSO originally from a launch on Thu, 21 Sep 2000 UTC launched from the Air Force Western Test Range (AFWTR). Debris objects in space refer to the collection of defunct objects orbiting the Earth. Examples of debris include non-operational satellites, rocket bodies, and fragments generated from explosions, collisions, or faulty payload assembly.

Loading next visibility...
Identifier
41157, 2000-055CQ
Orbit
SSO
Country
Flag of USUS
Related business
Manufacturer
Unknown
Mission
Spacecraft
Bus & Motor
Unknown
Mass
Unknown
Launch date (UTC)
2000-09-21 (26 years ago)
Launch vehicle
Unknown
Launch site
Air Force Western Test Range (AFWTR)
Object type
Payload
Rocket body
Debris
Shape & HBR
Unknown shape, 0.1 m
Radar Cross Section
Small (<0.1 m²)

Expand to show TLE details & history
Last TLE update: 8 hours ago

TLE from 8 hours ago
0 NOAA 16 DEB
1 41157U 00055CQ  26120.09130539  .00017126  00000-0  43026-2 0  9993
2 41157  98.9151 251.1880 0018843 252.9036 107.0093 14.51217983537601
Epoch: 2026-04-30T02:11Z
TLE epoch observation values (Epoch: 2026-04-30T02:11:28.785Z)
Latitude
-0.00006°
Longitude
0.27518°
Altitude
728.561 km
Speed
7.489 km/s
True Right ascension
16h 44m 45s
True Declination
0° 00' 00"
Sunlit
Object was in full shadow at epoch
Visualization orbit readout
Latitude
Unknown
Longitude
Unknown
Altitude
Unknown
Speed
Unknown
Apparent Right ascension
Unknown
Apparent Declination
Unknown
Sunlit
N/A
Visualization observer readout
Local Sidereal Time
17:47:00
Azimuth
Unknown
Elevation
Unknown
Doppler factor
Unknown
Orbital elements
Apogee altitude
732.173 km
Perigee altitude
705.428 km
Semi-major axis
7,096.937 km
Eccentricity
0.00188
Inclination
98.9151°
RAAN
251.188°
Arg. of periapsis
252.9036°
True anomaly
107.21564°
Mean anomaly
107.0093°
Eccentric anomaly
107.11248°
Mean motion
3.63025 °/min
Orbital period
99.17 mins
BSTAR
0.0043026
Loading maneuver chart data...
Computing Atmospheric mass density...
Loading historical data...
Loading historical data...
Loading historical data...
Loading historical data...
Loading historical data...
Loading historical data...
Loading historical data...

Documentation

Showing up to 5 results
|